sat.trackr.live / text

‹ back to catalog

STARLINK-31153

NORAD 59044 · 2024-038X

PAYLOAD ACTIVE UNKNOWN

§ Identity

Operator
Country
US
Launch date
2024-02-25
Launch site
AFETR
Launch vehicle
Mass (kg)
RCS (m²)

Purposes: comms

External: N2YO · Heavens-Above · Gunter

§ Orbital elements

Epoch: 2026-09-20T23:03:36.588096Z

Period
94.27 min
Inclination
43.0032°
Eccentricity
0.0001296
Mean motion
15.27575174 rev/d
Perigee alt
482.2 km
Apogee alt
484.0 km
Semi-major
6,861.2 km
B*
6.0961e-5
RAAN
0.6715°
Arg perigee
282.8745°
Mean anomaly
77.1961°
Rev number
14,455

§ Raw data

STARLINK-311531 59044U 24038X   26263.96084014  .00001415  00000+0  60961-4 0  99962 59044  43.0032   0.6715 0001296 282.8745  77.1961 15.27575174144553

JSON: /api/v1/satellites/59044 · /tle

For live sub-satellite position, see the globe view (requires WebGL).

§ Visibility from observer

Set your observer location to see the next 7 days of passes ≥ 10°. The values pass through the URL so the page stays shareable.

No JS? Fill the form by hand. The geolocation button needs JavaScript.